User: anonymous   Login
Location: Oak Glen
(34.0495°N, 116.9470°E)
Time: 21:00:07
(UTC-07:00)
Language:

OTV 5 (USA 277) - Orbit

View from above orbital plane
View from above orbital plane
View from above satellite
View from above satellite

Ground track
Ground track

The orbit data is extracted from the following two-line orbital elements,

1 42932U 17052A   18231.85925167 0.00000000  00000-0  00000-0 0    06
2 42932  54.4835 227.9483 0005000 195.4389 164.5610 15.81803810    08
Epoch (UTC): 19 August 2018 20:37:19
Eccentricity: 0.0005000
inclination: 54.4835°
perigee height: 322 km
apogee height: 328 km
right ascension of ascending node: 227.9483°
argument of perigee: 195.4389°
revolutions per day: 15.81803810
mean anomaly at epoch: 164.5610°
orbit number at epoch: 0

The dashed part of the orbit path shows where the satellite is in the earth's shadow,  

DLR